Location: Buffign�court
(47.8126°N, 6.0176°E)
Time: 18:05:38
(UTC+00:00)

Cosmos 1025 Rocket - Pass Details

Date: 16 June 2021
Orbit: 593 x 619 km, 82.5° (Epoch: 23 July)

Event Time Altitude Azimuth Distance (km) Brightness Sun altitude
Exits shadow 21:09:59 13° 174° (S) 1,778 4.9 -11.5°
Maximum altitude 21:13:48 61° 96° (E) 701 3.1 -11.9°
Drops below altitude 10° 21:18:08 10° 16° (NNE) 1,982 6.3 -12.3°
Sets 21:20:22 0° 13° (NNE) 2,888 7.2 -12.5°
